Location: Degersen
(52.2871°N, 9.5716°E)
Time: 23:03:24
(UTC+00:00)

Cosmos 1340 Rocket - Pass Details

Date: 20 January 2026
Orbit: 486 x 516 km, 81.2° (Epoch: 7 February)

Event Time Altitude Azimuth Distance (km) Brightness Sun altitude
Rises 06:12:45 0° 179° (S) 2,558 6.5 -9.9°
Reaches altitude 10° 06:14:52 10° 175° (S) 1,686 5.7 -9.6°
Maximum altitude 06:18:28 53° 98° (E) 619 3.5 -9.1°
Drops below altitude 10° 06:22:08 10° 21° (NNE) 1,718 5.3 -8.6°
Sets 06:24:18 0° 17° (NNE) 2,613 6.2 -8.3°
